Location: Newark
(48.4472°N, 1.4892°E)
Time: 10:02:12
(UTC+00:00)

Transit 4A - Pass Details

Date: 26 January 2021
Orbit: 866 x 978 km, 66.8° (Epoch: 26 February)

Event Time Altitude Azimuth Distance (km) Brightness Sun altitude
Rises 17:57:24 0° 192° (SSW) 3,660 11.4 -12.2°
Reaches altitude 10° 18:00:02 10° 187° (S) 2,720 10.6 -12.7°
Maximum altitude 18:06:06 48° 115° (ESE) 1,263 8.3 -13.7°
Enters shadow 18:11:09 15° 47° (NE) 2,375 9.5 -14.5°
